Date String (YYYY-MM-DD hh:mm:ss) UTC,Instrument flags,Ambient pressure (hPa),Sample flow (lpm),Bypass flow (lpm),Sample temperature (°C),Ambient temperature (°C),ASC tube jacket temperature (°C),LED temperature (°C),Box temperature (°C),Sample RH (%),Span deviation,Mass concentration (μg/m³),Mass concentration (μg/m³),Mass concentration (μg/m³)
DateTimeUTC,F1_M11,P_M11,Q1_M11,Q2_M11,T1_M11,T2_M11,T3_M11,T4_M11,T5_M11,U1_M11,ZSPAN_M11,X2_M11,X0_M11,X1_M11
2021-12-16 23:00:00,,0817.6,4.98,0.00,27.0,26.2,00.0,35.8,28.8,05.9,0000.0,0003.65,0017.39,0001.94
2021-12-16 23:01:00,,0817.6,5.00,0.00,27.0,26.2,00.0,35.8,28.8,05.9,0000.0,0003.71,0017.68,0001.97
2021-12-16 23:02:00,,0817.6,5.01,0.00,27.0,26.2,00.0,35.9,28.8,05.9,0000.0,0003.78,0018.42,0002.00
2021-12-16 23:03:00,,0817.7,5.00,0.00,27.0,26.2,00.0,35.9,28.8,06.0,0000.0,0003.79,0019.09,0002.03
2021-12-16 23:04:00,,0817.7,4.99,0.00,27.0,26.2,00.0,35.9,28.8,06.1,0000.0,0003.82,0019.58,0002.06
2021-12-16 23:05:00,,0817.7,5.01,0.00,27.0,26.2,00.0,35.9,28.8,06.2,0000.0,0003.86,0018.02,0002.11
2021-12-16 23:06:00,,0817.7,4.99,0.00,27.0,26.2,00.0,35.9,28.8,06.2,0000.0,0003.91,0018.48,0002.15
2021-12-16 23:07:00,,0817.6,4.99,0.00,27.0,26.2,00.0,35.9,28.8,06.3,0000.0,0003.99,0018.46,0002.21
2021-12-16 23:08:00,,0817.6,5.02,0.00,27.0,26.2,00.0,35.9,28.8,06.3,0000.0,0004.14,0018.31,0002.28
2021-12-16 23:09:00,,0817.7,4.98,0.00,27.0,26.2,00.0,35.9,28.8,06.3,0000.0,0004.29,0018.91,0002.34
2021-12-16 23:10:00,,0817.6,5.01,0.00,27.0,26.2,00.0,35.9,28.8,06.3,0000.0,0004.35,0019.90,0002.40
2021-12-16 23:11:00,,0817.7,5.00,0.00,27.0,26.2,00.0,35.9,28.8,06.3,0000.0,0004.43,0020.12,0002.46
2021-12-16 23:12:00,,0817.6,5.01,0.00,27.0,26.2,00.0,35.9,28.8,06.3,0000.0,0004.53,0021.01,0002.52
2021-12-16 23:13:00,,0817.7,5.00,0.00,27.0,26.2,00.0,35.9,28.8,06.3,0000.0,0004.58,0021.34,0002.57
2021-12-16 23:14:00,,0817.7,5.00,0.00,27.0,26.2,00.0,35.9,28.8,06.3,0000.0,0004.63,0021.77,0002.62
2021-12-16 23:15:00,,0817.7,4.99,0.00,27.0,26.2,00.0,35.9,28.8,06.2,0000.0,0004.59,0022.17,0002.63
2021-12-16 23:16:00,,0817.7,5.00,0.00,27.0,26.2,00.0,35.9,28.8,06.1,0000.0,0004.57,0022.98,0002.61
2021-12-16 23:17:00,,0817.7,5.00,0.00,27.0,26.2,00.0,35.9,28.8,06.1,0000.0,0004.54,0022.55,0002.61
2021-12-16 23:18:00,,0817.7,5.00,0.00,27.0,26.2,00.0,35.9,28.8,06.1,0000.0,0004.51,0022.52,0002.59
2021-12-16 23:19:00,,0817.8,5.00,0.00,27.0,26.2,00.0,35.9,28.8,06.1,0000.0,0004.36,0022.75,0002.56
2021-12-16 23:20:00,,0817.8,5.00,0.00,27.0,26.2,00.0,35.9,28.8,06.2,0000.0,0004.28,0023.90,0002.54
2021-12-16 23:21:00,,0817.7,4.99,0.00,27.0,26.2,00.0,35.9,28.8,06.2,0000.0,0004.33,0025.10,0002.55
2021-12-16 23:22:00,,0817.8,5.01,0.00,27.0,26.2,00.0,35.9,28.8,06.2,0000.0,0004.31,0025.10,0002.54
2021-12-16 23:23:00,,0817.8,5.01,0.00,27.0,26.2,00.0,35.9,28.8,06.3,0000.0,0004.27,0024.20,0002.54
2021-12-16 23:24:00,,0817.7,4.99,0.00,27.0,26.2,00.0,35.9,28.8,06.2,0000.0,0004.27,0023.47,0002.56
2021-12-16 23:25:00,,0817.8,5.00,0.00,27.0,26.2,00.0,35.9,28.8,06.2,0000.0,0004.32,0022.67,0002.56
2021-12-16 23:26:00,,0817.8,5.00,0.00,27.0,26.2,00.0,35.9,28.8,06.3,0000.0,0004.39,0021.19,0002.58
2021-12-16 23:27:00,,0817.8,4.99,0.00,27.0,26.1,00.0,35.9,28.8,06.3,0000.0,0004.44,0019.77,0002.59
2021-12-16 23:28:00,,0817.8,5.00,0.00,27.0,26.1,00.0,35.9,28.8,06.4,0000.0,0004.53,0021.41,0002.60
2021-12-16 23:29:00,,0817.7,4.99,0.00,27.0,26.1,00.0,35.9,28.8,06.4,0000.0,0004.57,0022.60,0002.61
2021-12-16 23:30:00,,0817.8,5.01,0.00,27.0,26.1,00.0,35.9,28.8,06.4,0000.0,0004.66,0022.56,0002.65
2021-12-16 23:31:00,,0817.8,4.99,0.00,27.0,26.1,00.0,35.9,28.8,06.4,0000.0,0004.75,0022.54,0002.66
2021-12-16 23:32:00,,0817.8,5.01,0.00,27.0,26.1,00.0,35.9,28.8,06.4,0000.0,0004.73,0020.31,0002.65
2021-12-16 23:33:00,,0817.8,4.98,0.00,27.0,26.1,00.0,35.9,28.8,06.4,0000.0,0004.69,0020.33,0002.65
2021-12-16 23:34:00,,0817.8,5.02,0.00,27.0,26.1,00.0,35.9,28.8,06.3,0000.0,0004.65,0021.58,0002.64
2021-12-16 23:35:00,,0817.8,5.00,0.00,27.0,26.1,00.0,35.9,28.8,06.1,0000.0,0004.60,0021.80,0002.59
2021-12-16 23:36:00,,0817.8,4.99,0.00,27.0,26.1,00.0,35.9,28.8,06.0,0000.0,0004.50,0020.61,0002.56
2021-12-16 23:37:00,,0817.8,5.00,0.00,27.0,26.1,00.0,35.9,28.8,06.0,0000.0,0004.39,0020.39,0002.50
2021-12-16 23:38:00,,0817.8,5.00,0.00,27.0,26.0,00.0,35.9,28.7,06.0,0000.0,0004.31,0021.35,0002.43
2021-12-16 23:39:00,,0817.9,5.01,0.00,27.0,26.0,00.0,35.9,28.7,05.9,0000.0,0004.21,0020.66,0002.39
2021-12-16 23:40:00,,0817.9,4.98,0.00,27.0,26.0,00.0,35.9,28.7,05.9,0000.0,0004.12,0018.20,0002.32
2021-12-16 23:41:00,,0817.8,5.01,0.00,27.0,26.0,00.0,35.9,28.7,05.9,0000.0,0004.04,0018.20,0002.22
2021-12-16 23:42:00,,0817.8,4.99,0.00,27.0,26.0,00.0,35.9,28.7,05.9,0000.0,0003.92,0017.13,0002.15
2021-12-16 23:43:00,,0817.8,4.99,0.00,26.9,26.0,00.0,35.9,28.7,05.9,0000.0,0003.86,0017.70,0002.09
2021-12-16 23:44:00,,0817.9,5.00,0.00,27.0,26.0,00.0,35.9,28.7,05.9,0000.0,0003.83,0017.38,0002.02
2021-12-16 23:45:00,,0817.9,5.01,0.00,26.9,26.0,00.0,35.9,28.8,05.9,0000.0,0003.78,0015.50,0001.95
2021-12-16 23:46:00,,0817.8,4.99,0.00,27.0,26.0,00.0,35.9,28.7,05.9,0000.0,0003.77,0015.38,0001.90
2021-12-16 23:47:00,,0817.9,5.00,0.00,26.9,26.0,00.0,35.9,28.7,05.9,0000.0,0003.83,0015.75,0001.87
2021-12-16 23:48:00,,0817.9,5.00,0.00,26.9,26.0,00.0,35.9,28.7,06.0,0000.0,0003.84,0016.43,0001.89
2021-12-16 23:49:00,,0817.9,5.00,0.00,26.9,26.0,00.0,35.9,28.7,06.2,0000.0,0003.90,0016.09,0001.92
2021-12-16 23:50:00,,0817.9,5.01,0.00,26.9,25.9,00.0,35.9,28.7,06.3,0000.0,0004.03,0016.71,0001.97
2021-12-16 23:51:00,,0818.0,4.99,0.00,26.9,25.9,00.0,35.8,28.7,06.3,0000.0,0004.13,0017.73,0002.03
2021-12-16 23:52:00,,0817.9,5.01,0.00,26.9,25.9,00.0,35.8,28.6,06.3,0000.0,0004.19,0018.26,0002.10
2021-12-16 23:53:00,,0817.9,4.99,0.00,26.9,25.9,00.0,35.8,28.6,06.3,0000.0,0004.27,0018.31,0002.15
2021-12-16 23:54:00,,0817.9,5.00,0.00,26.8,25.9,00.0,35.8,28.6,06.4,0000.0,0004.29,0018.92,0002.21
2021-12-16 23:55:00,,0817.8,5.01,0.00,26.8,25.9,00.0,35.8,28.6,06.4,0000.0,0004.30,0018.48,0002.26
2021-12-16 23:56:00,,0817.8,5.00,0.00,26.8,25.8,00.0,35.8,28.6,06.4,0000.0,0004.33,0019.26,0002.28
2021-12-16 23:57:00,,0817.8,4.99,0.00,26.8,25.8,00.0,35.8,28.5,06.4,0000.0,0004.36,0019.13,0002.33
2021-12-16 23:58:00,,0817.9,5.01,0.00,26.8,25.8,00.0,35.8,28.5,06.4,0000.0,0004.34,0019.11,0002.37
2021-12-16 23:59:00,,0817.9,4.98,0.00,26.8,25.8,00.0,35.8,28.5,06.4,0000.0,0004.37,0018.69,0002.40
